1st Responders/1st Detectors/Storm Spotters Weather Summary for Harrison County, KY

Forecast Maps


Reg. NEXRAD Animation


National Fire Danger: Day 1 & 2 Map

Current NWS Watch/Warnings

SPC Convective Day 1 Outlook


Day 2 Outlook

(Click images to enlarge|Page will refresh every 5 minutes)
UK Ag. Weather Center Desktop Severe Weather Service[HERE]
Harrison County, KY Hazardous Weather Outlook Webcast
(9 AM to 9 PM Mon-Fri)
[Fast]
[Dial-up]


UKAWC 1st Detectors/1st Responders Precision Weather Forecast For HARRISON County, Kentucky
(based on the NWS County Digital Forecast)

ISSUED AT 08:00 UTC ON TUESDAY JUN 27 2017
DAY TUESDAY
EDT 3HR 5A 6A 7A 8A 9A 10A 11A NOON 1P 2P 3P 4P 5P 6P 7P
MAX/MIN -- -- -- 54° -- -- -- -- -- -- -- -- -- -- 74°
TEMP 56° 56° 56° 58° 61° 65° 67° 70° 72° 74° 74° 76° 76° 74° 72°
SKY COVER 63% 56% 49% 42% 37% 33% 28% 25% 23% 21% 19% 18% 16% 14% 13%
Clouds
DEW PT 49° 49° 50° 50° 50° 49° 49° 47° 47° 47° 47° 47° 47° 49° 49°
RH 79% 80% 83% 77% 69% 57% 51% 45% 43% 40% 38% 36% 37% 40% 43%
POP 12HR -- -- -- 18% -- -- -- -- -- -- -- -- -- -- --
RAIN/SNOW (liq.equ) -- -- -- 0.05in -- -- -- -- -- 0.00in -- -- -- -- --
SNOWFALL -- -- -- 0in -- -- -- -- -- 0in -- -- -- -- --
WIND SPEED(MPH) 2 2 2 2 5 5 6 6 7 7 7 6 6 5 5
WIND Gust(MPH) 5 5 5 5 6 7 7 8 8 8 8 8 7 7 6
WIND DIR W W W W NW NW NW NW NW NW NW NW NW NW NW
DEW Lgt Dew Lgt Dew Lgt Dew Lgt Dew -- -- -- -- -- -- -- -- -- -- --
HeatIndex 56 56 56 58 61 65 67 70 72 74 74 76 76 74 72
Rain Showers -- -- -- -- -- -- -- -- -- -- -- -- -- -- --
Thunder Storm -- -- -- -- -- -- -- -- -- -- -- -- -- -- --
WIND CHILL -- -- -- -- -- -- -- -- -- -- -- -- -- -- --
SPRAY COND
DRY COND
LIVESTOCK HEATSTRESS 56.32 56.31 56.26 58.10 60.62 63.53 64.79 66.61 67.86 68.98 68.82 69.95 70.04 68.98 67.86



DAY WEDNESDAY THURSDAY FRIDAY FRI SATURDAY SUNDAY MONDAY
EDT 6HR 8P 9P 10P 11P MIDN 1A 2A 3A 4A 5A 6A 7A 8A 9A 10A 11A NOON 1P 2P 3P 4P 5P 8P 11P 2A 5A 8A 11A 2P 5P 8P 2A 8A 2P 8P 2A 8A 2P 8P 2A 8A 2P 8P 2A 8A 2P 8P
MAX/MIN -- -- -- -- -- -- -- -- -- -- -- -- 52° -- -- -- -- -- -- -- -- 81° -- -- -- -- 63° -- -- 85° -- -- 68° 85° -- -- 70° 81° -- -- 67° 83° -- -- 65° 83° --
TEMP 70° 67° 63° 61° 58° 58° 56° 54° 54° 54° 54° 56° 56° 61° 67° 74° 76° 77° 79° 79° 81° 81° 76° 68° 65° 63° 67° 81° 85° 85° 81° 72° 70° 83° 79° 72° 70° 81° 76° 68° 68° 83° 79° 67° 67° 81° 79°
SKY COVER 11% 9% 6% 4% 4% 4% 5% 6% 7% 9% 9% 10% 10% 9% 6% 5% 7% 11% 14% 15% 18% 20% 18% 21% 38% 45% 47% 51% 57% 58% 55% 58% 61% 63% 63% 70% 78% 79% 76% 73% 67% 45% 40% 50% 61% 65% 62%
Clouds
DEW PT 50° 50° 50° 50° 50° 50° 50° 50° 50° 50° 50° 52° 52° 54° 54° 54° 52° 52° 52° 52° 52° 52° 56° 56° 56° 58° 61° 65° 65° 67° 67° 65° 67° 67° 67° 67° 67° 70° 68° 67° 67° 65° 65° 63° 65° 65° 65°
RH 48% 56% 62% 70% 74% 77% 80% 86% 89% 89% 89% 86% 86% 75% 60% 49% 43% 42% 39% 38% 36% 38% 51% 63% 73% 80% 83% 58% 51% 53% 60% 81% 87% 58% 68% 87% 89% 66% 75% 93% 93% 54% 61% 89% 89% 58% 64%
POP 12HR 7% -- -- -- -- -- -- -- -- -- -- -- 1% -- -- -- -- -- -- -- -- -- 1% -- -- -- 3% -- -- -- 16% -- 13% -- 34% -- 38% -- 52% -- 37% -- 16% -- 21% -- 38%
RAIN/SNOW (liq.equ) 0.00in -- -- -- -- -- 0.00in -- -- -- -- -- 0.00in -- -- -- -- -- 0.00in -- -- -- 0.00in -- 0.00in -- 0.00in -- 0.00in -- 0.00in -- -- -- -- -- -- -- -- -- -- -- -- -- -- -- --
SNOWFALL 0in -- -- -- -- -- 0in -- -- -- -- -- 0in -- -- -- -- -- 0in -- -- -- 0in -- 0in -- 0in -- 0in -- 0in -- -- -- -- -- -- -- -- -- -- -- -- -- -- -- --
WIND SPEED(MPH) 2 1 1 1 1 1 1 2 2 2 2 2 2 5 6 7 7 7 7 7 7 7 6 5 6 6 8 10 13 10 8 7 7 9 7 7 7 7 6 2 2 6 5 2 2 6 5
WIND DIR N N NE E E SE SE SE SE SE SE SE SE SE S S S S S S S S S S S S S SW SW SW SW SW SW SW S SW SW SW W SW W W NW E E W W
HeatIndex 70 67 63 61 58 58 56 54 54 54 54 56 56 61 67 74 76 77 79 79 80 80 76 68 65 63 67 82 88 88 84 72 70 87 79 72 70 85 76 68 68 84 79 67 67 84 79
Rain Showers -- -- -- -- -- -- -- -- -- -- -- -- -- -- -- -- -- -- -- -- -- -- -- -- -- -- -- -- Slight Chance Slight Chance -- -- Chance Chance Chance Chance Chance Chance Chance Slight Chance Slight Chance -- Slight Chance Slight Chance Chance Chance Slight Chance
Thunder Storm -- -- -- -- -- -- -- -- -- -- -- -- -- -- -- -- -- -- -- -- -- -- -- -- -- -- -- -- Slight Chance Slight Chance -- -- Chance Chance Chance Chance Chance Chance Chance Slight Chance Slight Chance -- Slight Chance Slight Chance Chance Chance --
WIND CHILL -- -- -- -- -- -- -- -- -- -- -- -- -- -- -- -- -- -- -- -- -- -- -- -- -- -- -- -- -- -- -- -- -- -- -- -- -- -- -- -- -- -- -- -- -- -- --
SPRAY COND
DRY COND
LIVESTOCK HEATSTRESS 66.80 65.02 62.12 60.64 58.11 58.10 56.31 54.37 54.29 54.29 54.29 56.22 56.22 60.70 65.20 69.74 70.61 71.19 72.22 72.11 73.19 73.43 71.36 66.13 64.08 62.54 66.23 75.87 77.94 78.23 76.12 70.62 69.20 77.41 75.44 71.06 69.32 76.85 73.64 67.65 67.65 76.88 74.67 66.50 66.50 75.87 75.00

Click on individual weather variable above in left-hand column (ie., TEMP, RH, QPF 12HR) to view state forecast maps






NWS 48 Hr. Forecast Maps,

Regional Hourly Observations For HARRISON County, Kentucky
Issued at 400 AM EDT TUE JUN 27 2017
NORTHEAST KENTUCKY
  
CITY           SKY/WX    TMP DP  RH WIND       PRES   REMARKS
LEXINGTON      LGT RAIN  59  50  72 NW10G17   30.14R                  
COVINGTON      CLEAR     55  49  80 W7        30.09F                  
FRANKFORT      CLOUDY    57  52  83 NW6       30.13R                  


Current NOWCAST not available:
Nowcasts are not issued routinely during fair weather. Only when
precipitation or other significant weather is occuring in this county will these
forecasts be issued. Currently, there is no short term forecast in effect.


Fire Weather Forecast For HARRISON County, KY
Provided by the National Weather Service:

Issued at: Tue Jun 27 04:05:01 EDT 2017


                      Today        Tonight      Wed          

CLOUD COVER           MClear       MClear       MClear       
PRECIP TYPE           NONE         NONE         NONE         
CHANCE PRECIP (%)     0            0            0            
TEMP (24H TREND)      76 (0)       53 (-3)      81           
RH % (24H TREND)      36 (-4)      89 (+8)      34           
20FTWND-VAL/AM(MPH)   Lgt/Var                   Lgt/Var      
20FTWND-RDG/PM(MPH)   Lgt/Var      Lgt/Var      S  6         
PRECIP AMOUNT         0.00         0.00         0.00         
MIXING HGT(FT-AGL/MSL)7742                      6987         
TRANSPORT WND (MPH)   NW 10                     SW 15        
VENT RATE (KT-FT)     77420                     97020        
DISPERSION            Good                      Excellent    
DSI                   MOD UNSTBL   MOD UNSTBL   MOD UNSTBL   
LAL                   1            1            1            
HAINES INDEX          3            2            3            
ADI EARLY             62 GOOD      3 VERY POOR  47 GEN GOOD  
ADI LATE              57 GEN GOOD  2 VERY POOR  69 GOOD      
MAX LVORI EARLY       5            4            5            
MAX LVORI LATE        1            6            1            

REMARKS...ADI IS ATMOSPHERIC DISPERSION INDEX BY LAVDAS.        
LVORI IS LOW VISIBILITY OCCURRENCE RISK INDEX.

.THURSDAY...Partly cloudy. A 20 percent chance of showers and
thunderstorms. Lows in the mid 60s. Highs in the mid 80s. South
winds around 5 mph. 
.FRIDAY...Mostly cloudy. Lows in the upper 60s. Highs in the mid
80s. South winds around 5 mph. 
.SATURDAY...Mostly cloudy with a 50 percent chance of showers and
thunderstorms. Lows in the upper 60s. Highs in the lower 80s.
Southwest winds 5 to 10 mph. 
.SUNDAY...Mostly cloudy. Lows in the upper 60s. Highs in the mid
80s. Southwest winds up to 5 mph. 
.MONDAY...Mostly cloudy. A 40 percent chance of showers and
thunderstorms. Lows in the upper 60s. Highs in the mid 80s.
Southwest winds up to 5 mph. 

SPC's Fire Weather Web Tool (Excellent!), SPC's Fire Weather Outlooks, NWS Fire Weather WEB, Fire Danger Class Map,
Keetch-Byram Drought Index, ROMAN Web, Haines Index ,
WFAS's 10-hr Dead Fuel Moist., WFAS's 100-hr Dead Fuel Moist., Probablity of Ignition, Visual blackness Map, Palmer Drought Index, HPC's Rainfall Forecast Maps


Hazardous Weather Outlook For HARRISON County, Kentucky
321 AM EDT Tue Jun 27 2017 /221 AM CDT Tue Jun 27 2017/

 DAY ONE  Today and Tonight.

No hazardous weather is expected at this time.

 DAYS TWO THROUGH SEVEN  Wednesday through Monday.

The return of more seasonal heat and humidity combined with the
approach of an upper disturbance and frontal boundary will allow for
increasing storm chances late Thursday into the weekend. 

 SPOTTER INFORMATION STATEMENT  

Spotter activation is not expected at this time. 

Latest HARRISON County, Kentucky Watches, Warnings and Advisories.
Additional Drought Info.: UKAWC Drought Page, Kentucky Drought Watch


7-Day Forecast For HARRISON County, KY

EARLY THIS MORNING
Mostly cloudy with a 20 percent chance of showers. West winds up to 5 mph.

TODAY
Partly cloudy in the morning then clearing. Highs in the mid 70s. Northwest winds around 5 mph.

TONIGHT
Mostly clear. Lows in the lower 50s. East winds up to 5 mph.

WEDNESDAY
Mostly sunny. Highs in the lower 80s. South winds 5 to 10 mph.

WEDNESDAY NIGHT
Mostly clear. Lows in the mid 60s. South winds 5 to 10 mph.

THURSDAY
Partly cloudy with a 20 percent chance of showers and thunderstorms. Highs in the mid 80s. Southwest winds 10 to 15 mph.

THURSDAY NIGHT
Partly cloudy. Lows in the upper 60s.

FRIDAY
Partly cloudy with a 30 percent chance of showers and thunderstorms. Highs in the mid 80s.

FRIDAY NIGHT
Partly cloudy with a 50 percent chance of showers and thunderstorms. Lows in the upper 60s.

SATURDAY
Mostly cloudy with a 50 percent chance of showers and thunderstorms. Highs in the lower 80s.

SATURDAY NIGHT
Partly cloudy with a 20 percent chance of showers and thunderstorms. Lows in the upper 60s.

SUNDAY
Partly cloudy with a 20 percent chance of showers and thunderstorms. Highs in the mid 80s.

SUNDAY NIGHT
Partly cloudy with a 20 percent chance of showers and thunderstorms. Lows in the mid 60s.

MONDAY
Partly cloudy with a 40 percent chance of showers and thunderstorms. Highs in the mid 80s.

Ag Weather Center, Department of Biosystems & Agricultural Engineering, University of Kentucky